Location: �perlecques
(50.8057°N, 2.1521°E)
Time: 04:16:35
(UTC+00:00)

Cosmos 1455 - Pass Details

Date: 09 April 2020
Orbit: 498 x 523 km, 82.5° (Epoch: 29 May)

Event Time Altitude Azimuth Distance (km) Brightness Sun altitude
Exits shadow 19:56:51 12° 78° (ENE) 1,617 4.3 -12.4°
Drops below altitude 10° 19:58:08 10° 59° (ENE) 1,755 4.6 -12.6°
Sets 20:01:24 0° 28° (NNE) 2,656 5.8 -13.0°
